FPO3JU LFPG-LJLJ

Flight info

Callsign FPO3JU
Flight time N/A
Altitude 35000
Route LANVI6K LANVI DCT BEGAR DCT TRA DCT GAMSA DCT GEDSO DCT DEGUM DEGUM2L
Aircraft B738/M-SDE2E3FGHIRWXY/LB1

Departure

Time 2026-05-05 09:07
Airport Charles de Gaulle International Airport (LFPG)

Arrival

Time N/A
Airport Ljubljana Jože Pučnik Airport (LJLJ)
Time Latitude Longitude Altitude Speed Heading
2026-05-05 08:48 49.01539 2.50784 349 ft 0 kts 355°
2026-05-05 08:59 49.01519 2.50786 358 ft 4 kts 355°
2026-05-05 09:00 49.01493 2.50790 357 ft 4 kts 355°
2026-05-05 09:00 49.01469 2.50793 360 ft 4 kts 357°
2026-05-05 09:00 49.01448 2.50786 353 ft 4 kts 60°
2026-05-05 09:00 49.01445 2.50750 357 ft 4 kts 94°
2026-05-05 09:01 49.01446 2.50721 357 ft 0 kts 85°
2026-05-05 09:03 49.01446 2.50726 350 ft 2 kts 86°
2026-05-05 09:03 49.01447 2.50747 354 ft 5 kts 85°
2026-05-05 09:04 49.01451 2.50838 355 ft 13 kts 86°
2026-05-05 09:04 49.01461 2.51008 350 ft 19 kts 90°
2026-05-05 09:04 49.01476 2.51234 352 ft 23 kts 66°
2026-05-05 09:04 49.01612 2.51287 352 ft 18 kts 356°
2026-05-05 09:05 49.01748 2.51274 357 ft 20 kts 357°
2026-05-05 09:05 49.01871 2.51255 355 ft 17 kts 354°
2026-05-05 09:05 49.01901 2.51251 353 ft 0 kts 354°
2026-05-05 09:06 49.01912 2.51249 353 ft 5 kts 356°
2026-05-05 09:06 49.01971 2.51262 355 ft 12 kts 24°
2026-05-05 09:06 49.02044 2.51361 357 ft 13 kts 46°
2026-05-05 09:06 49.02074 2.51505 357 ft 16 kts 85°
2026-05-05 09:07 49.02086 2.51692 351 ft 21 kts 84°
2026-05-05 09:07 49.02126 2.52431 354 ft 120 kts 85°
2026-05-05 09:07 49.02210 2.54092 631 ft 180 kts 84°
2026-05-05 09:07 49.02297 2.55902 2346 ft 160 kts 84°
2026-05-05 09:08 49.02398 2.57712 3479 ft 188 kts 83°
2026-05-05 09:08 49.02548 2.59888 4046 ft 222 kts 85°
2026-05-05 09:08 49.02636 2.62300 5006 ft 230 kts 86°
2026-05-05 09:08 49.02755 2.64778 5679 ft 246 kts 85°
2026-05-05 09:09 49.02908 2.67485 6381 ft 262 kts 84°
2026-05-05 09:09 49.03061 2.70263 7414 ft 262 kts 85°
2026-05-05 09:09 49.03206 2.73008 8359 ft 265 kts 85°
2026-05-05 09:09 49.03346 2.75835 9300 ft 270 kts 85°
2026-05-05 09:10 49.03486 2.78727 10182 ft 276 kts 85°
2026-05-05 09:10 49.03632 2.81764 10514 ft 302 kts 85°
2026-05-05 09:10 49.03793 2.85092 10747 ft 327 kts 85°
2026-05-05 09:10 49.03961 2.88631 11215 ft 342 kts 85°
2026-05-05 09:11 49.04134 2.92298 12002 ft 347 kts 86°
2026-05-05 09:11 49.04077 2.95987 12897 ft 351 kts 100°
2026-05-05 09:11 49.03500 2.99641 13649 ft 360 kts 104°
2026-05-05 09:11 49.02838 3.03338 14526 ft 361 kts 105°
2026-05-05 09:12 49.02176 3.06992 15336 ft 366 kts 106°
2026-05-05 09:12 49.01498 3.10770 16076 ft 372 kts 106°
2026-05-05 09:12 49.00826 3.14578 16963 ft 374 kts 106°
2026-05-05 09:12 49.00152 3.18443 17728 ft 380 kts 106°
2026-05-05 09:13 48.99473 3.22358 18478 ft 384 kts 106°
2026-05-05 09:13 48.98790 3.26309 19150 ft 388 kts 106°
2026-05-05 09:13 48.98096 3.30318 19814 ft 393 kts 106°
2026-05-05 09:13 48.97394 3.34369 20483 ft 398 kts 106°
2026-05-05 09:14 48.96683 3.38463 21115 ft 402 kts 106°
2026-05-05 09:14 48.95971 3.42558 21748 ft 406 kts 106°
2026-05-05 09:14 48.95241 3.46744 22350 ft 411 kts 106°
2026-05-05 09:14 48.94505 3.50955 22959 ft 415 kts 106°
2026-05-05 09:15 48.93775 3.55225 23531 ft 419 kts 103°
2026-05-05 09:15 48.93372 3.59650 24035 ft 424 kts 97°
2026-05-05 09:15 48.93152 3.64134 24562 ft 427 kts 95°
2026-05-05 09:15 48.92971 3.68667 25072 ft 430 kts 95°
2026-05-05 09:16 48.92783 3.73233 25540 ft 433 kts 96°
2026-05-05 09:16 48.92573 3.77818 26006 ft 436 kts 96°
2026-05-05 09:16 48.92345 3.82380 26454 ft 439 kts 97°
2026-05-05 09:16 48.92099 3.87019 26918 ft 441 kts 97°
2026-05-05 09:17 48.91844 3.91669 27546 ft 439 kts 97°
2026-05-05 09:17 48.91588 3.96283 28244 ft 436 kts 97°
2026-05-05 09:17 48.91331 4.00886 28827 ft 436 kts 98°
2026-05-05 09:18 48.90806 4.10185 28851 ft 441 kts 98°
2026-05-05 09:18 48.90282 4.19403 28859 ft 435 kts 99°
2026-05-05 09:18 48.89687 4.23818 28851 ft 429 kts 115°
2026-05-05 09:19 48.88373 4.27860 28876 ft 426 kts 122°
2026-05-05 09:19 48.85937 4.34399 28848 ft 427 kts 123°
2026-05-05 09:20 48.82502 4.43516 28846 ft 425 kts 123°
2026-05-05 09:20 48.80095 4.49992 28850 ft 421 kts 123°
2026-05-05 09:21 48.77242 4.57715 28862 ft 419 kts 123°
2026-05-05 09:21 48.74390 4.65434 28855 ft 418 kts 123°
2026-05-05 09:22 48.71541 4.73122 28859 ft 418 kts 123°
2026-05-05 09:22 48.68682 4.80811 28875 ft 419 kts 124°
2026-05-05 09:23 48.65834 4.88450 28849 ft 419 kts 124°
2026-05-05 09:23 48.62968 4.96117 28862 ft 418 kts 124°
2026-05-05 09:24 48.60098 5.03769 28861 ft 417 kts 124°
2026-05-05 09:24 48.57228 5.11402 28862 ft 417 kts 124°
2026-05-05 09:25 48.54372 5.18972 28858 ft 418 kts 124°
2026-05-05 09:25 48.51486 5.26602 28862 ft 418 kts 124°
2026-05-05 09:26 48.48602 5.34204 28862 ft 417 kts 124°
2026-05-05 09:26 48.45718 5.41786 28866 ft 417 kts 124°
2026-05-05 09:27 48.42822 5.49377 28862 ft 417 kts 124°
2026-05-05 09:27 48.39924 5.56952 28868 ft 417 kts 124°
2026-05-05 09:28 48.37037 5.64476 28875 ft 418 kts 124°
2026-05-05 09:28 48.34120 5.72064 28860 ft 419 kts 124°
2026-05-05 09:29 48.31202 5.79628 28873 ft 417 kts 124°
2026-05-05 09:29 48.29756 5.83423 28704 ft 416 kts 124°
2026-05-05 09:29 48.28257 5.87063 28750 ft 416 kts 129°
2026-05-05 09:30 48.25272 5.94554 28819 ft 423 kts 118°
2026-05-05 09:30 48.22308 6.02027 28926 ft 414 kts 134°
2026-05-05 09:30 48.20692 6.05653 28807 ft 423 kts 118°
2026-05-05 09:31 48.19290 6.09479 28817 ft 416 kts 134°
2026-05-05 09:31 48.17642 6.12963 28837 ft 423 kts 116°
2026-05-05 09:31 48.16191 6.16712 28858 ft 414 kts 134°
2026-05-05 09:31 48.14645 6.20347 28878 ft 422 kts 116°
2026-05-05 09:32 48.13138 6.24036 28878 ft 413 kts 135°
2026-05-05 09:32 48.11620 6.27653 28872 ft 421 kts 116°
2026-05-05 09:32 48.10070 6.31344 28894 ft 412 kts 133°
2026-05-05 09:32 48.08645 6.35056 28905 ft 419 kts 118°
2026-05-05 09:33 48.07017 6.38597 28930 ft 412 kts 131°
2026-05-05 09:33 48.05667 6.42423 28931 ft 418 kts 120°
2026-05-05 09:33 48.03974 6.45906 28900 ft 414 kts 127°
2026-05-05 09:34 48.00966 6.53235 28877 ft 415 kts 125°
2026-05-05 09:34 47.97929 6.60489 28834 ft 417 kts 123°
2026-05-05 09:35 47.95001 6.67925 28821 ft 421 kts 117°
2026-05-05 09:35 47.90706 6.79141 28857 ft 414 kts 134°
2026-05-05 09:36 47.89209 6.82826 28878 ft 422 kts 115°
2026-05-05 09:36 47.87697 6.86483 28890 ft 413 kts 133°
2026-05-05 09:36 47.86307 6.90252 28941 ft 419 kts 117°
2026-05-05 09:36 47.85546 6.92310 28761 ft 417 kts 131°
2026-05-05 09:38 47.83953 6.95377 28870 ft 416 kts 126°
2026-05-05 09:38 47.82705 6.99303 28882 ft 425 kts 111°